Regional Weather Roundup
Issued by NWS

Home | Current Version | Previous Version | Graphics & Text | Print | Product List | Glossary On
Versions: 1 2 3 4 5 6 7 8 9 10 11 12 13 14 15 16 17 18 19 20 21 22 23 24 25 26 27 28 29 30 31 32 33 34 35 36 37 38 39 40 41 42 43 44 45 46 47 48 49 50
354
ASUS44 KMEG 210510
RWRTN
TENNESSEE HOURLY STATE WEATHER ROUNDUP
NATIONAL WEATHER SERVICE MEMPHIS TN
1200 AM CDT SAT APR 21 2018

TNZ002-004-019-021-049-052-054-088>092-210600-
WEST TENNESSEE

CITY           SKY/WX    TMP DP  RH WIND       PRES   REMARKS
MEMPHIS INTL   FAIR      55  35  47 E7        30.24S
NWS MEMPHIS      N/A     49 N/A N/A MISG        N/A
JACKSON        FAIR      53  34  48 E6        30.28F
DYERSBURG      FAIR      55  31  39 E6        30.29S
SOMERVILLE       N/A     50  34  53 CALM      30.25S
COVINGTON      CLEAR     52  36  54 E5        30.28R
UNION CITY     CLEAR     54  32  43 NE5       30.29F
BOLIVAR        CLEAR     45  37  76 CALM      30.26F
PARIS          CLEAR     48  32  53 NE5       30.31S
HUNTINGDON     CLEAR     48  32  53 NE3       30.30S
LEXINGTON      CLEAR     48  32  53 CALM      30.29F
SELMER         CLEAR     52  32  46 NE3       30.27S
SAVANNAH       CLEAR     48  36  61 CALM      30.28R
$$

TNZ008-025-027-028-033-062-065-066-210600-
NORTH MIDDLE TENNESSEE

CITY           SKY/WX    TMP DP  RH WIND       PRES   REMARKS
NASHVILLE      FAIR      51  30  44 NE6       30.33R
PORTLAND       CLEAR     52  28  40 E6        30.33R
CLARKSVILLE    FAIR      48  30  49 E7        30.33R
SMYRNA         FAIR      48  31  51 N3        30.33R
COOKEVILLE     CLEAR     43  32  65 CALM      30.31R
LIVINGSTON     CLEAR     48  27  43 NE6       30.32S
GALLATIN       CLEAR     52  28  40 NE3       30.35S
CROSSVILLE     FAIR      47  26  44 NE6       30.32S
ROCKWOOD       CLEAR     50  23  34 NE5       30.31R
$$

TNZ061-075-076-078-094-096-097-210600-
SOUTH MIDDLE TENNESSEE

CITY           SKY/WX    TMP DP  RH WIND       PRES   REMARKS
LEWISBURG      CLEAR     37  34  87 CALM      30.31R
FAYETTEVILLE   CLEAR     50  32  50 NE6       30.27S
TULLAHOMA      CLEAR     54  28  37 CALM      30.29R
WINCHESTER     CLEAR     45  37  76 CALM      30.29R
MCMINNVILLE    CLEAR     46  30  53 CALM      30.31R
COLUMBIA       CLEAR     46  39  76 CALM      30.30R
SHELBYVILLE    CLEAR     45  37  76 CALM      30.30R
$$

TNZ017-018-042-046-047-210600-
NORTHEAST TENNESSEE

CITY           SKY/WX    TMP DP  RH WIND       PRES   REMARKS
TRI CITIES     FAIR      42  27  55 N3        30.36R
ELIZABETHTON     N/A     37  30  75 CALM      30.36R
$$

TNZ012-013-036-069-073-074-210600-
CENTRAL EAST TENNESSEE

CITY           SKY/WX    TMP DP  RH WIND       PRES   REMARKS
KNOXVILLE      FAIR      49  34  56 NE8       30.30R
OAK RIDGE      FAIR      50  31  48 CALM      30.33R
DOWNTOWN KNOXV CLEAR     43  41  93 CALM      30.33S
GATLINBURG     CLEAR     41  36  81 CALM      30.32S
MORRISTOWN     CLEAR     48  30  49 E5        30.33R
JACKSBORO      CLEAR     41  32  70 CALM      30.37S
$$

TNZ083-085-099-210600-
SOUTHEAST TENNESSEE

CITY           SKY/WX    TMP DP  RH WIND       PRES   REMARKS
CHATTANOOGA    FAIR      47  39  74 CALM      30.30R
DAYTON         CLEAR     43  41  93 CALM      30.30R
$$

SKY/WX REPORTED AS FAIR MEANS FEW OR NO CLOUDS BELOW
12 THOUSAND FEET.





USA.gov is the U.S. government's official web portal to all federal, state and local government web resources and services.